Regional Weather Roundup
Issued by NWS Charleston, SC

Current Version | Previous Version | Text Only | Print | Product List | Glossary Off
Versions: 1 2 3 4 5 6 7 8 9 10 11 12 13 14 15 16 17 18 19 20 21 22 23 24 25 26 27 28 29 30 31 32 33 34 35 36 37 38 39 40 41 42 43 44 45 46 47 48 49 50

000
ASUS42 KCHS 200025
RWRCHS

REGIONAL WEATHER ROUNDUP
NATIONAL WEATHER SERVICE CHARLESTON SC
800 PM EDT FRI SEP 19 2014

NOTE: "FAIR" INDICATES FEW OR NO CLOUDS BELOW 12,000 FEET WITH NO
SIGNIFICANT WEATHER AND/OR OBSTRUCTIONS TO VISIBILITY.

NOT ALL STATIONS ARE QUALITY CONTROLLED BY THE NATIONAL
WEATHER SERVICE. USE DATA WITH CAUTION...ESPECIALLY
DEWPOINT OBSERVATIONS.

SCZ027-030-031-034>040-042>050-200100-
...SOUTH CAROLINA...

CITY           SKY/WX    TMP DP  RH WIND       PRES   REMARKS
N CHARLESTON   LGT RAIN  69  65  86 N7        30.09S
6HR MIN TEMP:  69; 6HR MAX TEMP:  84; 6HR PCP:  0.73;

WATERFRONT PRK   N/A     75 N/A N/A NE13        N/A
FORT JOHNSON   NOT AVBL
MOUNT PLEASANT FAIR      70  68  94 N5        30.09S
JOHNS ISLAND   CLEAR     73  73 100 CALM      30.08R
PINOPOLIS        N/A     77  70  78 NE10      30.01R
MONCKS CORNER    N/A     73  72  94 CALM      30.10S
SUMMERVILLE    MOCLDY    70  70 100 CALM      30.11R
BEAUFORT MCAS  CLOUDY    74  70  87 NW6       30.06S
6HR MIN TEMP:  73; 6HR MAX TEMP:  83; 6HR PCP:  0.03;

BEAUFORT ARPT  CLOUDY    75  72  88 NE13G20   30.06R
HILTON HEAD IS PTCLDY    79  68  69 NE13G20   30.05S
GEORGETOWN     NOT AVBL
WALTERBORO     CLOUDY    72  72 100 E8        30.10R
ORANGEBURG     CLOUDY    70  65  84 CALM      30.11S
6HR MIN TEMP:  70; 6HR MAX TEMP:  83; 6HR PCP:  0.03;

BARNWELL       MOCLDY    70  66  88 NE3       30.11R
AIKEN          LGT RAIN  68  68 100 NE5       30.16S
MANNING        FAIR      72 N/A N/A NE3       30.12S
KINGSTREE      NOT AVBL
COLUMBIA       MOCLDY    74  64  71 E13       30.12R
6HR MIN TEMP:  74; 6HR MAX TEMP:  84; 6HR PCP: TRACE;

SUMTER         MOCLDY    70  65  84 NE6       30.12R
6HR MIN TEMP:  70; 6HR MAX TEMP:  84; 6HR PCP:  0.10;

FLORENCE       PTCLDY    74  65  73 E10       30.14R
6HR MIN TEMP:  74; 6HR MAX TEMP:  84; 6HR PCP: TRACE;

MYRTLE BEACH   PTCLDY    77  64  65 NE14G22   30.11R
N MYRTLE BEACH MOCLDY    74  66  76 NE13      30.12R
6HR MIN TEMP:  74; 6HR MAX TEMP:  82; 6HR PCP:  0.01;


$$

GAZ063-065-086>088-099>101-113>116-118-119-134-136>141-150-200100-
...GEORGIA...

CITY           SKY/WX    TMP DP  RH WIND       PRES   REMARKS
SAVANNAH ARPT  CLOUDY    76  67  73 NE12      30.06R
6HR MIN TEMP:  76; 6HR MAX TEMP:  83; 6HR PCP:  0.01;

HUNTER AAF     TSTM      72  70  94 VRB7G29   30.03R VSB 1/2
6HR MIN TEMP:  72; 6HR MAX TEMP:  81; 6HR PCP:  0.47;

FORT STEWART   CLOUDY    74  67  79 E10       30.04R
6HR MIN TEMP:  74; 6HR MAX TEMP:  80;

STATESBORO     NOT AVBL
SYLVANIA       MOCLDY    75  73  94 E5        30.09S
CLAXTON        MOCLDY    73  73 100 NE8       30.06S
THOMSON        MOCLDY    73  70  90 E9        30.16R
AUGUSTA-BUSH   MOCLDY    70  67  90 E5        30.10R
6HR MIN TEMP:  70; 6HR MAX TEMP:  84; 6HR PCP:  0.02;

AUGUSTA-DANIEL LGT RAIN  71  67  87 NE10      30.12R
SWAINSBORO     FAIR      72  72 100 E6        30.09R
VIDALIA        LGT RAIN  70  70 100 NE12      30.06S
ALMA           CLOUDY    74  68  81 VRB3      30.03R
6HR MIN TEMP:  72; 6HR MAX TEMP:  84; 6HR PCP: TRACE;

WAYCROSS       CLOUDY    75  74  96 CALM      30.03R
JESUP          FAIR      77  73  88 NE5       30.03S
BRUNSWICK      CLOUDY    77  72  83 SE6       30.02R
SAINT SIMONS   CLOUDY    76  69  79 SE17G24   30.02R
6HR MIN TEMP:  73; 6HR MAX TEMP:  84; 6HR PCP:  0.01;


$$

SCZ027-028-034-036>038-045-046-048>050-GAZ119-141-200100-
...LAKE AND SUPPLEMENTAL COASTAL OBSERVATIONS...

STATION/POSITION TIME  TEMP    WIND        PRES    WAVE   SWELL
                       AIR SEA DIR/SP/G            HT/PER HT/PER/DIR
                 (UTC) (F)     (DEG/KT/KT) (MB)    (FT/S) (FT/S/D)
UPR LAKE MARION  NOT AVBL
WINYAH BAY       0000   79      60/ 16     1019.0S
LAKE MURRAY      2300   76      50/  2/  4 1019.3R
ACE BASIN NERRS  0000   72      30/  3     1018.0S
FORT PULASKI     0000   78      50/ 19/ 24 1017.3R
SAPELO ISLAND    0000   79      70/ 12     1017.0S

$$

ANZ835-935-AMZ111-154-330-350-352-354-374-450-454-472-200100-
...C-MAN AND BUOY OBSERVATIONS...

STATION/POSITION TIME  TEMP    WIND        PRES    WAVE   SWELL
                       AIR SEA DIR/SP/G            HT/PER HT/PER/DIR
                 (UTC) (F)     (DEG/KT/KT) (MB)    (FT/S) (FT/S/D)
FOLLY BEACH CMAN 0000   76      30/ 11/ 15 1018.8R
BUOY 41004       0000   79 82   80/ 12/ 14 1017.4R   6/ 6   5/ 6
BUOY 41008       0000   80 84   90/ 17/ 21 1015.9R   4/ 5   2/ 50/ 9
5E ST. MARYS GA  0000      84                N/A     3/ 4   2/100/11
FRYING PAN BUOY  NOT AVBL
BUOY 41025       0000   75      30/ 19/ 23 1021.2R   6/ 7   2/ 60/10
CAPE LOOKOUT NC  0000   75      40/ 19/ 21 1021.5R
BUOY 41002       2245   79 82   60/ 19/ 23 1017.4    4/ 9   2/ 80/ 9
BUOY 41010       0000   83 85   80/ 12/ 14 1014.3R   3/10   3/ 60/10
BUOY 41012       NOT AVBL
ST AUGUSTINE FL  0000   80      70/ 11/ 13 1015.8R
CAPERS NEARSHORE 2300   79      80/ 12/ 16   N/A
FRIPP NEARSHORE  NOT AVBL


$$


USA.gov is the U.S. government's official web portal to all federal, state and local government web resources and services.